Precipitable_Water
0.31 0.36 0.51 0.47 0.33 0.43 0.42 0.44 0.49 0.48 0.47 0.57 0.51 0.48 0.56 0.62 0.55 0.36 0.78 0.90 0.97 0.96 0.94 0.85 0.92 1.02 1.09 1.11 1.08 1.07 1.09 1.08 1.09 1.09 0.98 0.96 0.97 0.99 0.99 1.00 1.03 1.06 1.10 1.13 1.12 1.13 1.17 1.23 1.26
0.31 0.38 0.46 0.40 0.39 0.36 0.38 0.56 0.55 0.57 0.63 0.68 0.68 0.68 0.66 0.54 0.60 0.62 0.72 0.96 0.96 0.95 0.95 0.83 0.91 1.03 1.09 1.11 1.11 1.11 1.11 1.09 1.10 1.11 1.02 0.97 0.98 1.01 1.03 1.04 1.07 1.08 1.11 1.13 1.15 1.15 1.14 1.20 1.25
0.38 0.43 0.34 0.34 0.38 0.34 0.36 0.51 0.51 0.58 0.70 0.67 0.74 0.88 0.80 0.70 0.80 0.71 0.89 0.95 0.96 0.94 0.94 0.86 0.93 1.02 1.07 1.08 1.10 1.10 1.12 1.10 1.10 1.11 1.07 1.01 1.00 1.01 1.02 1.05 1.09 1.13 1.16 1.18 1.19 1.17 1.17 1.18 1.25
0.34 0.32 0.33 0.26 0.32 0.39 0.42 0.55 0.60 0.63 0.70 0.75 0.79 0.67 0.96 1.13 0.99 0.95 0.97 0.93 0.92 0.93 0.96 0.93 0.97 1.01 1.05 1.09 1.10 1.11 1.13 1.12 1.11 1.12 1.11 1.05 1.03 1.01 1.01 1.05 1.09 1.16 1.21 1.24 1.25 1.23 1.22 1.24 1.24
0.36 0.27 0.20 0.22 0.27 0.32 0.37 0.48 0.61 0.64 0.73 0.76 0.87 0.76 0.82 1.00 1.05 1.04 1.01 0.97 0.93 0.98 0.99 0.99 1.00 1.03 1.06 1.08 1.11 1.16 1.19 1.19 1.17 1.16 1.14 1.08 1.04 1.03 1.03 1.06 1.11 1.15 1.22 1.26 1.31 1.32 1.28 1.28 1.31
0.22 0.23 0.16 0.18 0.23 0.29 0.36 0.48 0.62 0.73 0.80 0.78 0.73 0.76 0.89 1.07 0.95 1.08 1.07 1.03 1.10 0.97 0.98 1.01 1.05 1.07 1.11 1.14 1.17 1.22 1.25 1.24 1.23 1.20 1.19 1.11 1.07 1.06 1.07 1.11 1.14 1.16 1.22 1.27 1.29 1.31 1.35 1.32 1.30
0.19 0.17 0.15 0.21 0.21 0.26 0.31 0.40 0.48 0.50 0.52 0.60 0.81 0.60 0.86 0.92 0.90 1.00 1.05 1.08 1.14 1.09 0.96 1.01 1.07 1.10 1.17 1.21 1.23 1.28 1.33 1.33 1.28 1.24 1.22 1.15 1.11 1.10 1.13 1.17 1.17 1.17 1.22 1.28 1.33 1.37 1.40 1.43 1.41
0.23 0.20 0.14 0.18 0.19 0.22 0.32 0.34 0.42 0.42 0.37 0.59 0.71 0.51 0.62 0.84 0.90 1.06 1.09 1.06 1.09 1.14 1.14 1.10 1.08 1.10 1.18 1.24 1.29 1.34 1.39 1.39 1.34 1.31 1.26 1.19 1.17 1.18 1.20 1.22 1.24 1.27 1.29 1.32 1.41 1.47 1.51 1.51 1.51
0.25 0.15 0.12 0.15 0.22 0.25 0.29 0.29 0.33 0.36 0.33 0.34 0.46 0.50 0.62 0.81 0.86 0.86 0.88 0.92 0.95 1.00 1.05 1.13 1.12 1.10 1.14 1.22 1.31 1.39 1.42 1.43 1.41 1.39 1.32 1.25 1.25 1.28 1.29 1.34 1.33 1.35 1.39 1.44 1.43 1.46 1.41 1.41 1.45
0.20 0.14 0.14 0.21 0.27 0.27 0.28 0.29 0.30 0.28 0.26 0.32 0.37 0.47 0.58 0.62 0.62 0.59 0.64 0.70 0.83 0.94 1.08 1.19 1.13 1.07 1.09 1.19 1.28 1.37 1.44 1.44 1.45 1.41 1.33 1.31 1.33 1.35 1.39 1.44 1.44 1.49 1.51 1.55 1.52 1.37 1.38 1.42 1.43
0.19 0.15 0.18 0.22 0.26 0.28 0.27 0.26 0.27 0.23 0.22 0.31 0.29 0.38 0.52 0.58 0.57 0.56 0.65 0.70 0.75 0.96 1.10 1.23 1.21 1.23 1.17 1.12 1.25 1.34 1.41 1.43 1.42 1.38 1.37 1.34 1.35 1.41 1.46 1.47 1.48 1.47 1.50 1.48 1.47 1.38 1.35 1.39 1.49
0.16 0.20 0.21 0.23 0.25 0.24 0.23 0.26 0.23 0.23 0.23 0.32 0.34 0.39 0.47 0.52 0.60 0.60 0.72 0.79 0.83 0.94 1.08 1.26 1.29 1.30 1.29 1.23 1.20 1.27 1.33 1.38 1.35 1.37 1.34 1.33 1.35 1.38 1.44 1.43 1.39 1.37 1.37 1.34 1.33 1.29 1.30 1.31 1.38
0.18 0.20 0.23 0.24 0.26 0.24 0.25 0.22 0.21 0.21 0.25 0.28 0.28 0.30 0.33 0.35 0.40 0.50 0.63 0.71 0.88 0.99 1.14 1.28 1.39 1.44 1.42 1.30 1.28 1.34 1.38 1.35 1.37 1.41 1.44 1.51 1.45 1.39 1.41 1.40 1.38 1.36 1.35 1.30 1.23 1.21 1.20 1.35 1.41
0.25 0.25 0.24 0.24 0.24 0.24 0.20 0.20 0.22 0.19 0.22 0.25 0.27 0.29 0.35 0.40 0.44 0.49 0.54 0.62 0.83 1.02 1.17 1.40 1.49 1.54 1.47 1.34 1.32 1.38 1.42 1.41 1.45 1.50 1.53 1.56 1.52 1.43 1.39 1.34 1.31 1.25 1.28 1.25 1.20 1.20 1.30 1.38 1.36
0.27 0.20 0.21 0.20 0.23 0.21 0.23 0.16 0.16 0.21 0.24 0.27 0.30 0.34 0.40 0.46 0.50 0.50 0.63 0.71 0.90 1.06 1.26 1.41 1.52 1.52 1.45 1.39 1.25 1.29 1.30 1.41 1.45 1.51 1.54 1.55 1.50 1.41 1.36 1.31 1.26 1.24 1.20 1.08 1.05 1.11 1.26 1.32 1.31
0.22 0.21 0.14 0.16 0.20 0.20 0.21 0.12 0.22 0.28 0.28 0.27 0.31 0.37 0.44 0.48 0.54 0.66 0.75 0.77 0.94 1.11 1.25 1.43 1.49 1.45 1.43 1.34 1.30 1.28 1.34 1.40 1.47 1.49 1.50 1.49 1.45 1.40 1.34 1.27 1.23 1.15 1.05 1.02 1.06 1.09 1.07 1.09 1.13
0.21 0.13 0.14 0.14 0.18 0.18 0.19 0.17 0.26 0.34 0.33 0.32 0.34 0.41 0.47 0.54 0.68 0.79 0.85 0.88 0.90 1.05 1.23 1.36 1.41 1.37 1.35 1.37 1.36 1.32 1.34 1.42 1.46 1.49 1.47 1.45 1.41 1.37 1.29 1.25 1.16 1.09 1.02 0.99 1.01 1.01 0.99 0.95 0.97
0.13 0.16 0.16 0.14 0.18 0.28 0.25 0.25 0.32 0.36 0.35 0.35 0.38 0.46 0.53 0.60 0.72 0.84 0.86 0.91 0.98 1.01 1.16 1.28 1.34 1.35 1.35 1.35 1.33 1.33 1.32 1.34 1.41 1.42 1.40 1.38 1.36 1.32 1.24 1.15 1.09 1.04 0.98 0.97 0.96 0.91 0.90 0.91 0.92
0.18 0.18 0.18 0.20 0.31 0.31 0.27 0.28 0.30 0.38 0.38 0.36 0.40 0.47 0.55 0.67 0.83 0.94 0.94 0.97 0.97 1.01 1.04 1.19 1.24 1.28 1.30 1.22 1.18 1.19 1.15 1.20 1.28 1.30 1.31 1.30 1.26 1.20 1.12 1.08 1.00 0.93 0.89 0.86 0.88 0.85 0.84 0.82 0.91
0.19 0.18 0.19 0.20 0.29 0.33 0.33 0.30 0.33 0.38 0.39 0.42 0.43 0.48 0.58 0.70 0.80 0.91 0.97 0.99 0.92 0.92 1.01 1.10 1.20 1.27 1.27 1.28 1.29 1.26 1.20 1.16 1.20 1.23 1.24 1.21 1.14 1.09 1.06 0.97 0.88 0.87 0.85 0.86 0.87 0.87 0.82 0.82 0.85
0.18 0.17 0.16 0.16 0.26 0.37 0.35 0.31 0.33 0.39 0.43 0.45 0.46 0.51 0.63 0.66 0.72 0.85 0.93 0.96 0.92 0.91 0.98 1.10 1.19 1.26 1.31 1.33 1.30 1.23 1.13 1.09 1.07 1.13 1.13 1.10 1.09 1.06 0.99 0.88 0.83 0.81 0.82 0.79 0.80 0.83 0.85 0.79 0.86
0.14 0.21 0.22 0.25 0.24 0.19 0.35 0.21 0.29 0.36 0.38 0.42 0.42 0.50 0.61 0.71 0.79 0.83 0.88 0.91 0.89 0.91 1.04 1.14 1.20 1.25 1.29 1.29 1.19 1.04 0.98 0.93 1.06 1.11 1.10 1.07 1.08 0.96 0.86 0.82 0.75 0.71 0.71 0.72 0.76 0.79 0.74 0.71 0.63
0.18 0.25 0.28 0.34 0.31 0.27 0.26 0.25 0.28 0.34 0.32 0.35 0.36 0.48 0.59 0.71 0.78 0.81 0.84 0.85 0.85 0.87 0.93 1.07 1.16 1.17 1.18 1.14 1.06 1.05 0.99 1.06 1.10 1.10 1.03 1.02 0.95 0.85 0.78 0.75 0.73 0.74 0.74 0.69 0.64 0.58 0.53 0.51 0.47
0.27 0.33 0.35 0.36 0.34 0.22 0.25 0.24 0.17 0.25 0.26 0.30 0.39 0.50 0.61 0.72 0.80 0.87 0.90 0.88 0.77 0.76 0.85 0.95 1.00 1.01 1.02 1.01 1.04 1.06 1.04 1.04 1.03 1.01 0.97 0.90 0.80 0.75 0.72 0.74 0.73 0.69 0.66 0.59 0.51 0.49 0.46 0.45 0.44
0.34 0.32 0.26 0.23 0.24 0.17 0.28 0.28 0.22 0.31 0.36 0.37 0.40 0.53 0.66 0.76 0.80 0.83 0.82 0.78 0.74 0.70 0.77 0.84 0.87 0.85 0.92 0.98 1.02 1.07 1.06 1.05 1.01 0.92 0.84 0.73 0.70 0.68 0.68 0.70 0.66 0.63 0.58 0.55 0.52 0.48 0.46 0.47 0.45
0.28 0.32 0.22 0.18 0.18 0.17 0.30 0.22 0.24 0.32 0.37 0.42 0.48 0.56 0.67 0.73 0.80 0.80 0.83 0.75 0.70 0.69 0.71 0.74 0.78 0.82 0.91 0.97 1.02 1.08 1.06 1.02 0.91 0.83 0.75 0.68 0.66 0.67 0.69 0.67 0.65 0.62 0.59 0.55 0.54 0.53 0.51 0.51 0.50
0.37 0.33 0.36 0.29 0.30 0.24 0.26 0.29 0.35 0.39 0.40 0.41 0.47 0.58 0.63 0.70 0.79 0.80 0.82 0.75 0.72 0.69 0.67 0.69 0.74 0.82 0.89 0.94 0.99 1.01 0.99 0.92 0.88 0.83 0.77 0.74 0.75 0.75 0.74 0.70 0.66 0.67 0.65 0.61 0.58 0.55 0.52 0.54 0.55
0.37 0.45 0.35 0.37 0.23 0.20 0.23 0.25 0.24 0.35 0.36 0.42 0.48 0.54 0.62 0.72 0.80 0.82 0.82 0.77 0.74 0.72 0.71 0.73 0.77 0.80 0.87 0.95 0.96 0.93 0.92 0.92 0.86 0.81 0.78 0.79 0.82 0.82 0.77 0.71 0.71 0.71 0.69 0.67 0.63 0.63 0.65 0.62 0.62
0.41 0.39 0.42 0.39 0.35 0.23 0.20 0.23 0.36 0.37 0.40 0.42 0.49 0.57 0.64 0.71 0.77 0.81 0.85 0.83 0.74 0.74 0.73 0.74 0.78 0.82 0.85 0.90 0.92 0.89 0.88 0.88 0.84 0.83 0.85 0.86 0.88 0.86 0.84 0.80 0.78 0.76 0.74 0.73 0.71 0.69 0.69 0.68 0.68
0.43 0.36 0.36 0.30 0.29 0.33 0.28 0.21 0.43 0.46 0.49 0.51 0.53 0.60 0.69 0.77 0.81 0.85 0.88 0.85 0.78 0.72 0.75 0.74 0.78 0.79 0.84 0.90 0.90 0.85 0.86 0.85 0.84 0.84 0.88 0.91 0.89 0.89 0.85 0.83 0.83 0.83 0.83 0.82 0.77 0.72 0.71 0.71 0.71
Wind_Speed
6 7 6 5 5 3 1 2 4 2 1 2 4 3 2 3 3 3 2 1 2 3 3 3 2 1 1 1 2 3 4 4 5 6 7 8 8 8 8 8 8 8 8 7 7 6 5 5 4
7 7 7 7 5 3 2 3 5 2 4 6 4 3 3 2 3 2 2 1 3 3 3 3 2 1 1 2 3 3 4 5 5 6 7 8 9 9 9 8 8 8 7 7 6 5 5 4 4
7 8 9 8 6 6 4 5 5 4 4 2 1 3 2 2 2 1 2 2 2 2 2 2 2 2 2 3 3 4 5 5 5 6 7 8 9 9 9 9 9 8 8 8 7 6 5 4 4
8 8 9 8 8 6 6 7 5 5 3 2 1 3 3 6 4 3 1 1 1 2 2 3 3 3 3 4 4 5 5 6 6 7 8 9 9 10 10 10 10 9 9 8 8 7 7 6 6
9 9 9 9 9 9 7 8 9 4 4 4 5 4 4 5 2 2 2 2 2 3 4 4 4 5 5 6 6 6 6 7 7 7 8 9 10 10 11 11 11 11 10 10 10 9 9 9 9
10 10 9 11 10 9 8 5 4 3 3 2 3 4 6 5 3 4 4 4 5 5 6 6 7 7 7 7 7 7 8 8 8 8 9 10 11 11 12 12 13 12 12 12 12 12 12 13 13
13 11 12 12 11 9 9 8 6 5 7 7 6 6 7 7 6 5 5 5 6 7 8 9 9 9 9 9 9 9 9 9 9 9 10 11 11 12 12 13 14 14 14 14 15 15 16 16 16
13 12 11 13 12 13 11 9 8 8 8 7 7 8 9 9 7 6 7 7 8 8 9 11 11 11 11 11 10 10 10 9 10 10 10 11 12 13 13 14 15 16 16 17 17 18 18 20 20
15 12 13 14 13 12 11 10 10 10 9 9 9 9 9 8 8 8 8 9 10 11 11 12 13 13 13 13 12 12 11 10 10 11 11 12 13 13 14 15 15 16 17 16 16 18 20 22 22
17 15 17 15 13 12 10 10 10 10 11 10 9 9 8 9 10 10 11 11 11 12 12 13 13 14 14 14 13 13 12 11 11 11 12 12 13 14 14 15 15 16 14 15 18 18 23 24 24
18 19 18 17 15 13 12 11 12 11 12 13 11 11 11 12 13 14 14 14 13 13 14 14 14 14 14 15 15 13 12 12 13 12 12 13 13 13 13 14 14 14 15 16 18 21 21 24 30
20 22 20 19 18 16 15 15 15 14 14 14 13 12 13 14 15 16 17 18 16 16 15 15 15 15 15 15 14 13 12 12 12 11 12 12 11 12 13 14 14 14 15 16 19 21 21 21 22
21 21 21 18 19 19 18 19 18 18 17 16 14 13 14 14 14 13 16 20 19 18 17 16 16 15 14 12 12 12 12 11 11 11 10 10 11 11 12 14 15 15 17 19 19 21 20 19 13
20 20 21 20 19 19 20 20 18 19 18 18 16 15 15 15 15 16 18 19 19 19 18 17 15 14 11 11 12 12 11 10 10 10 10 10 11 12 13 15 16 17 19 20 20 19 19 14 11
22 21 21 22 21 21 19 22 21 20 18 19 18 17 17 16 15 15 17 20 18 18 16 14 14 13 12 12 11 11 11 10 10 10 10 10 12 13 14 16 17 19 20 20 19 17 17 13 11
22 20 20 21 21 23 20 22 20 20 20 20 19 19 18 17 16 16 17 19 17 16 16 15 14 13 12 11 11 11 11 11 10 10 10 12 13 14 15 16 19 19 19 19 18 16 14 13 11
21 21 21 21 23 21 22 21 23 19 18 19 19 20 19 17 17 18 18 18 16 15 16 16 15 14 12 11 10 10 10 10 10 10 12 13 14 15 16 18 18 18 19 17 17 15 14 12 12
21 21 21 21 18 22 22 23 19 18 18 19 20 19 19 19 19 19 18 17 17 16 16 17 16 15 13 12 11 11 11 11 12 13 14 15 16 16 17 17 17 18 18 18 17 16 15 14 14
23 22 21 21 20 19 23 23 23 21 20 19 20 21 21 20 20 19 18 17 16 16 16 17 17 16 14 13 13 12 13 13 13 14 14 15 15 16 16 17 18 18 18 19 18 17 16 16 15
27 25 24 24 24 21 21 25 26 24 23 22 22 23 22 22 22 20 19 18 16 15 16 17 17 16 16 15 14 14 14 14 14 15 14 15 15 15 16 17 18 18 19 19 19 18 16 17 17
29 29 25 25 21 23 23 26 25 24 24 23 23 24 24 23 22 21 19 17 15 15 16 17 17 17 17 16 15 14 13 14 15 15 15 15 15 16 17 17 17 18 19 19 19 18 19 20 21
32 28 28 25 23 24 23 27 28 27 27 25 26 24 25 24 22 20 19 18 17 16 16 17 17 17 16 16 15 15 15 15 15 15 15 16 16 17 17 17 17 18 19 20 21 21 21 21 21
30 26 27 24 23 23 26 25 27 28 28 28 26 25 25 25 22 21 20 18 17 17 17 17 17 17 17 16 16 15 14 15 14 15 16 16 18 19 18 18 19 20 21 21 21 22 22 23 23
29 22 23 23 23 29 27 26 32 26 26 26 25 25 23 21 21 21 19 18 17 17 17 17 17 17 17 16 15 15 15 15 16 17 17 18 19 19 20 21 22 22 22 23 23 23 23 23 23
30 25 22 23 24 30 24 26 37 24 24 25 25 24 22 20 21 21 19 18 17 17 17 17 17 17 17 16 16 16 16 17 17 18 18 19 20 21 22 23 24 24 25 25 24 24 24 24 24
35 32 25 23 23 28 27 30 30 29 31 25 23 24 22 22 23 23 21 20 18 18 19 19 19 18 18 17 17 18 18 18 18 18 20 21 22 22 23 24 25 26 27 27 26 25 25 25 26
31 32 32 22 22 21 25 28 27 26 27 24 24 24 25 25 25 23 22 21 20 20 20 20 20 19 19 18 18 19 20 20 20 21 21 23 24 25 26 26 27 27 27 27 26 26 27 27 27
38 31 26 26 25 25 26 27 28 25 26 24 25 28 27 26 25 24 22 22 21 22 21 21 20 20 20 20 20 20 21 22 22 23 24 26 27 27 28 28 29 30 30 29 28 28 29 29 29
31 34 32 29 30 28 25 29 30 29 27 26 26 26 26 27 25 24 23 22 22 22 22 22 21 21 21 21 21 22 23 24 24 26 27 29 30 30 31 32 32 32 32 31 30 30 30 30 31
43 42 41 34 31 34 29 36 25 25 26 25 26 24 25 26 25 24 23 23 23 23 23 23 23 23 23 23 23 23 24 25 25 26 28 29 30 32 33 33 33 33 32 32 32 32 32 32 32
Wind_Direction
214 197 189 173 157 121 186 196 185 239 62 66 75 87 111 31 7 324 6 171 138 158 168 181 191 214 288 349 357 3 5 6 5 7 9 8 5 3 2 3 4 5 7 10 12 14 21 26 33
204 191 183 175 159 149 204 164 139 153 131 108 75 71 26 11 13 29 23 214 170 165 174 189 208 247 283 311 327 335 340 344 347 350 352 353 355 354 353 353 353 352 352 352 353 354 356 3 7
201 196 186 181 190 199 218 219 205 197 175 272 332 357 332 314 343 327 334 147 163 184 196 206 227 263 281 299 311 317 325 329 333 337 342 344 345 346 343 343 343 341 338 337 335 332 327 326 329
206 200 196 195 216 229 213 224 231 208 267 307 258 333 315 304 280 285 183 172 197 230 229 229 248 270 282 288 299 307 316 320 322 327 332 337 339 337 335 334 334 331 329 327 323 316 306 300 300
211 203 200 208 230 246 237 236 231 241 262 283 275 290 301 306 286 223 227 243 253 264 249 253 260 277 284 285 290 296 304 312 316 319 326 330 331 330 328 327 327 325 321 315 312 308 299 290 287
215 207 205 214 242 247 226 240 212 217 235 235 285 282 291 282 269 237 242 260 276 274 259 261 267 276 281 284 287 290 297 302 308 315 320 324 324 324 323 322 321 321 317 312 306 298 297 290 282
212 214 215 221 241 236 225 234 243 246 257 285 258 284 273 275 267 245 257 269 279 279 269 269 270 274 278 279 283 286 292 297 301 307 313 318 320 321 322 320 318 317 314 309 304 298 293 291 285
219 221 223 226 238 240 240 241 239 252 272 271 260 270 269 264 256 257 264 269 274 278 278 275 273 273 275 276 279 283 287 291 296 301 308 313 317 320 320 320 318 317 311 309 304 298 295 290 291
221 224 225 233 232 237 241 242 251 259 260 276 275 267 264 248 254 264 272 277 274 276 277 277 276 274 271 273 277 279 281 284 291 296 304 310 313 317 320 321 322 319 318 315 311 312 298 295 285
222 222 227 232 231 237 244 241 249 261 265 276 274 273 257 251 257 267 271 273 273 275 278 280 280 277 269 270 274 277 277 281 286 292 299 305 311 314 317 320 324 326 324 324 321 320 319 304 283
227 226 227 238 235 237 244 248 260 257 265 259 257 258 258 262 264 268 270 270 271 273 274 276 279 279 274 270 271 272 273 278 283 288 296 301 307 314 317 320 323 327 327 327 327 323 324 318 311
233 233 233 236 240 241 246 257 265 262 265 259 259 257 263 269 269 274 276 275 272 270 271 272 274 275 279 274 265 264 271 276 282 286 294 301 306 312 317 322 324 324 327 330 331 333 329 335 342
234 236 235 241 240 245 249 253 258 263 265 258 258 259 268 271 275 283 288 279 275 271 274 270 271 272 277 273 261 261 269 273 277 283 293 302 308 313 317 318 319 319 320 324 327 330 333 338 350
240 238 241 242 243 249 251 256 256 261 255 254 254 258 264 267 272 281 290 292 279 269 270 266 264 268 269 270 265 262 266 267 273 279 290 299 304 309 312 316 318 317 318 320 320 327 332 333 337
237 243 247 243 246 249 252 258 254 254 254 252 254 257 263 267 276 282 290 294 280 269 262 255 257 265 267 271 262 259 262 263 271 278 287 293 303 306 309 312 316 316 319 320 323 321 324 323 321
238 240 244 247 245 248 243 255 256 256 251 249 251 260 262 269 273 282 290 293 281 267 253 249 253 261 266 264 264 260 259 262 268 276 284 296 302 306 308 310 314 316 317 319 321 322 322 318 313
240 240 241 253 244 245 240 253 253 260 244 245 254 261 264 267 276 285 289 288 276 265 250 245 250 257 258 261 264 261 263 266 272 280 290 296 301 304 306 309 312 314 316 318 317 317 314 313 309
235 239 242 242 246 244 241 247 254 251 247 248 257 263 265 271 276 282 285 284 276 266 250 244 246 251 253 255 257 262 264 271 274 281 287 293 297 301 305 308 312 313 314 315 315 312 310 307 305
236 239 243 245 244 251 245 247 250 253 254 255 256 264 266 270 277 284 280 279 276 266 252 243 243 245 247 250 255 260 265 269 275 281 287 291 295 299 303 307 310 311 312 311 310 308 307 306 302
241 244 247 252 247 247 249 252 254 255 255 253 260 267 265 270 275 277 277 276 272 261 252 244 241 242 247 251 255 262 264 268 273 279 284 289 293 297 301 303 305 307 310 310 308 304 302 304 300
239 241 244 246 248 254 255 258 256 257 256 258 264 265 263 264 269 268 267 271 267 257 248 242 241 243 248 252 255 260 265 268 274 276 281 287 290 295 297 298 301 304 306 306 305 300 300 298 296
239 239 244 248 248 250 250 262 258 255 258 263 267 266 262 265 267 258 257 263 265 256 246 241 242 245 246 249 253 257 263 269 272 272 280 284 287 290 292 293 297 300 302 302 298 297 296 296 296
242 238 240 243 247 254 249 261 263 253 258 262 264 266 264 263 252 249 252 260 261 251 245 243 242 244 246 250 254 257 263 268 269 272 278 282 286 286 287 290 294 296 300 300 298 295 294 293 292
234 239 242 246 246 253 247 248 261 256 257 262 266 266 264 256 245 246 251 257 257 248 243 241 241 243 246 249 251 256 259 264 269 275 277 280 283 284 285 288 291 292 296 297 297 294 292 292 291
228 227 241 246 245 253 245 248 256 259 255 262 262 258 259 247 240 243 249 252 249 243 240 240 240 243 245 247 251 255 260 266 271 274 277 279 282 283 285 288 289 290 293 294 292 292 290 290 289
226 224 235 238 246 257 246 253 256 254 256 261 256 254 253 247 241 243 248 247 246 242 239 240 241 243 246 248 254 258 263 267 273 276 278 281 282 285 287 286 287 288 290 290 289 290 289 288 288
229 230 235 246 256 258 252 260 266 259 257 259 256 253 253 244 240 241 243 246 245 242 240 240 241 244 247 250 257 260 265 269 273 277 281 283 285 286 286 286 287 289 289 289 286 287 288 287 287
230 231 232 238 241 251 255 257 256 259 258 256 256 258 248 239 237 238 243 244 244 241 240 240 243 246 249 254 259 264 267 271 275 279 280 283 285 286 286 286 286 288 288 287 286 287 288 288 288
226 227 234 241 241 246 258 260 259 254 254 254 261 255 240 235 236 237 241 243 242 241 239 241 245 248 253 256 260 266 269 274 278 280 282 285 286 286 286 286 287 287 287 286 286 286 287 287 288
229 231 230 238 244 247 252 258 259 256 254 259 259 255 243 235 235 236 239 241 242 240 240 243 247 252 255 259 262 266 271 275 279 282 283 286 287 288 288 287 286 286 285 284 284 286 286 287 289